User: anonymous   Login
Location: *
(10.5081°N, 66.9194°W)
Time: 13:08:35
(UTC+00:00)
Language:

SL-16 R/B - Orbit

View from above orbital plane
View from above orbital plane
View from above satellite
View from above satellite

Ground track
Ground track

The orbit data is extracted from the following two-line orbital elements,

1 28353U 04021B   20188.65803584 +.00000308 +00000-0 +18611-3 0  9997
2 28353 071.0010 259.0474 0006844 295.9581 064.0836 14.14233606829853
Epoch (UTC): 06 July 2020 15:47:34
Eccentricity: 0.0006844
inclination: 71.0010°
perigee height: 840 km
apogee height: 850 km
right ascension of ascending node: 259.0474°
argument of perigee: 295.9581°
revolutions per day: 14.14233606
mean anomaly at epoch: 64.0836°
orbit number at epoch: 82985

The dashed part of the orbit path shows where the satellite is in the earth's shadow,  

DLR